Weather History for Pendleton, OR

Change the Weather History Date:

Wednesday, January 15, 2014

  Actual Average Record
Temperature  
Mean Temperature 44 °F 35 °F  
Max Temperature 58 °F 42 °F 68 °F (1974)
Min Temperature 30 °F 29 °F -8 °F (1907)
Degree Days  
Heating Degree Days 21 30  
Month to date heating degree days 384 462  
Since 1 July heating degree days 2842 2699  
Cooling Degree Days 0 0  
Month to date cooling degree days 0 0  
Year to date cooling degree days 0 0  
Moisture  
Dew Point 26 °F    
Average Humidity 52    
Maximum Humidity 78    
Minimum Humidity 25    
Precipitation  
Precipitation 0.00 in 0.04 in 1.19 in (1956)
Month to date precipitation 0.38 0.74  
Year to date precipitation 0.38 0.74  
Snow  
Snow 0.00 in 0.10 in 2.90 in (1950)
Month to date snowfall T 2.1  
Year to date snowfall T 2.1  
Since 1 July snowfall 6.5 9.6  
Snow Depth 0.00 in    
Sea Level Pressure  
Sea Level Pressure 30.47 in    
Wind  
Wind Speed 5 mph (ESE)    
Max Wind Speed 14 mph    
Max Gust Speed 16 mph    
Visibility 10 miles    
Events      
T = Trace of Precipitation, MM = Missing Value Source: NWS Daily Summary

Daily Weather History Graph

Daily Weather History Graph

Search for Another Location

Airport:

Trip Planner

Search our weather history database for the weather conditions in past years. The results will help you decide how hot, cold, wet, or windy it might be!

Date:

Astronomy

Jan. 15, 2014 Rise Set
Actual Time 7:32 AM PST 4:37 PM PST
Civil Twilight 6:58 AM PST 5:11 PM PST
Nautical Twilight 6:22 AM PST 5:48 PM PST
Astronomical Twilight 5:46 AM PST 6:23 PM PST
Moon 4:43 PM PST (1/15) 6:48 AM PST (1/15)
Length of Visible Light 10h 12m
Length of Day
9h 05m
Full, 100% of the Moon is Illuminated
Jan 15
Full
Jan 15
Full
Jan 23
Last Quarter
Jan 30
New
Feb 6
First Quarter

Hourly Weather History & Observations

Time (PST) Temp. Windchill Dew Point Humidity Pressure Visibility Wind Dir Wind Speed Gust Speed Precip Events Conditions
12:53 AM 36.0 °F 29.6 °F 25.0 °F 64% 30.49 in 10.0 mi SSE 8.1 mph - N/A   Clear
1:53 AM 35.1 °F 28.6 °F 24.1 °F 64% 30.48 in 10.0 mi SSE 8.1 mph - N/A   Clear
2:53 AM 36.0 °F 30.3 °F 23.0 °F 59% 30.48 in 10.0 mi SSE 6.9 mph - N/A   Clear
3:53 AM 35.1 °F 27.9 °F 24.1 °F 64% 30.47 in 10.0 mi SSE 9.2 mph - N/A   Clear
4:53 AM 37.0 °F 32.4 °F 23.0 °F 57% 30.47 in 10.0 mi South 5.8 mph - N/A   Clear
5:53 AM 34.0 °F - 24.1 °F 67% 30.48 in 10.0 mi Calm Calm - N/A   Clear
6:53 AM 34.0 °F 27.2 °F 24.1 °F 67% 30.48 in 10.0 mi ENE 8.1 mph - N/A   Clear
7:53 AM 30.0 °F 25.2 °F 24.1 °F 79% 30.47 in 10.0 mi South 4.6 mph - N/A   Clear
8:53 AM 34.0 °F 29.8 °F 26.1 °F 73% 30.47 in 10.0 mi SE 4.6 mph - N/A   Clear
9:53 AM 43.0 °F 38.2 °F 28.9 °F 58% 30.46 in 10.0 mi SE 8.1 mph - N/A   Clear
10:53 AM 52.0 °F - 28.0 °F 40% 30.44 in 10.0 mi Calm Calm - N/A   Clear
11:53 AM 55.9 °F - 24.1 °F 29% 30.44 in 10.0 mi North 10.4 mph - N/A   Clear
12:53 PM 55.9 °F - 24.1 °F 29% 30.43 in 10.0 mi NNE 6.9 mph - N/A   Clear
1:53 PM 57.0 °F - 24.1 °F 28% 30.43 in 10.0 mi Calm Calm - N/A   Clear
2:53 PM 57.0 °F - 23.0 °F 27% 30.44 in 10.0 mi ENE 4.6 mph - N/A   Clear
3:53 PM 55.0 °F - 25.0 °F 31% 30.44 in 10.0 mi West 3.5 mph - N/A   Clear
4:53 PM 45.0 °F 42.6 °F 30.0 °F 56% 30.45 in 10.0 mi North 4.6 mph - N/A   Clear
5:53 PM 39.9 °F - 28.0 °F 63% 30.47 in 10.0 mi Calm Calm - N/A   Clear
6:53 PM 39.0 °F 35.7 °F 26.1 °F 60% 30.47 in 10.0 mi NE 4.6 mph - N/A   Clear
7:53 PM 37.9 °F - 27.0 °F 65% 30.48 in 10.0 mi Calm Calm - N/A   Clear
8:53 PM 39.0 °F - 30.9 °F 73% 30.49 in 10.0 mi Calm Calm - N/A   Clear
9:53 PM 37.0 °F - 28.0 °F 70% 30.50 in 10.0 mi Calm Calm - N/A   Clear
10:53 PM 32.0 °F 26.4 °F 27.0 °F 82% 30.51 in 10.0 mi SSE 5.8 mph - N/A   Clear
11:53 PM 34.0 °F 29.8 °F 28.9 °F 82% 30.51 in 10.0 mi SE 4.6 mph - N/A   Clear